Location: Unspecified
(0.0000°N, 0.0000°E)
Time: 19:26:20
(UTC+01:00)

HO-68 - Visible Passes

Search period start: 26 January 2015 00:00
Search period end: 05 February 2015 00:00
Orbit: 1193 x 1204 km, 100.2° (Epoch: 26 January)

Date Brightness Start Highest point End Pass type
(mag) Time Alt. Az. Time Alt. Az. Time Alt. Az.
26 Jan ? 21:48:55 10° S 21:53:24 42° S 21:53:24 42° S visible
27 Jan ? 21:32:00 10° SSE 21:36:12 39° SSE 21:36:12 39° SSE visible
28 Jan ? 21:15:18 10° SSE 21:18:58 32° SE 21:18:58 32° SE visible
28 Jan ? 23:06:20 10° SW 23:08:26 13° WSW 23:08:26 13° WSW visible
29 Jan ? 20:58:50 10° SE 21:01:45 25° SE 21:01:45 25° SE visible
29 Jan ? 22:47:48 10° SSW 22:51:12 19° WSW 22:51:12 19° WSW visible
30 Jan ? 20:42:38 10° SE 20:44:31 17° ESE 20:44:31 17° ESE visible
30 Jan ? 22:29:59 10° SSW 22:33:58 26° SW 22:33:58 26° SW visible
31 Jan ? 20:26:50 10° ESE 20:27:17 11° ESE 20:27:17 11° ESE visible
31 Jan ? 22:12:31 10° S 22:16:44 33° SSW 22:16:44 33° SSW visible
01 Feb ? 21:55:19 10° S 21:59:29 37° SSW 21:59:29 37° SSW visible
02 Feb ? 21:38:20 10° SSE 21:42:15 36° S 21:42:15 36° S visible
03 Feb ? 21:21:32 10° SSE 21:25:00 31° SSE 21:25:00 31° SSE visible
03 Feb ? 23:13:54 10° WSW 23:14:26 11° WSW 23:14:26 11° WSW visible
04 Feb ? 21:04:58 10° SSE 21:07:44 24° SE 21:07:44 24° SE visible
04 Feb ? 22:54:41 10° SW 22:57:11 16° SW 22:57:11 16° SW visible
